Wind_Speed
24 26 28 28 28 27 27 28 29 30 31 31 32 33 33 33 33 32 32 33 33 33 35 38 41 42 42 43 43 42 41 42 42 42 43 44 45 47 49 51 53 55 55 51 48 52 59 66 70 68 63 58 59 61 64 69 73 74 73 71 70 68 66
25 27 29 31 31 31 30 30 31 32 32 33 34 35 35 36 36 35 35 34 35 36 38 41 43 44 44 45 45 44 43 44 44 44 45 46 47 49 51 53 54 57 57 53 50 53 60 68 70 67 62 60 61 62 65 70 73 75 75 73 71 70 70
27 29 31 32 34 34 34 33 33 34 35 35 37 38 38 39 39 39 39 38 38 39 41 43 44 45 46 46 46 45 44 45 46 47 48 48 49 51 53 54 56 58 58 54 53 56 61 68 70 66 62 62 63 64 67 71 74 76 77 76 73 72 71
32 32 33 34 36 37 37 36 36 36 37 37 39 41 41 42 43 43 43 43 43 44 45 46 46 47 47 47 46 45 45 46 47 49 52 52 52 53 55 56 57 60 59 55 56 59 63 68 70 67 64 64 65 66 67 71 74 76 77 78 76 73 72
36 36 36 37 39 41 41 39 39 39 38 39 41 42 44 46 47 46 46 47 47 48 49 49 49 48 47 46 45 43 44 47 48 51 54 56 56 56 58 59 59 61 60 57 58 62 65 68 71 69 67 66 66 66 68 71 75 76 78 78 77 74 73
39 39 39 38 40 43 44 43 43 41 40 41 42 44 46 48 49 50 50 50 50 50 51 50 49 47 46 45 43 41 43 46 48 53 57 58 59 60 61 61 61 62 61 58 61 65 66 68 71 71 69 67 67 68 69 72 75 77 77 77 77 75 74
41 41 41 41 41 43 45 46 45 44 43 43 44 46 47 49 50 51 51 51 51 51 50 48 47 45 44 42 40 39 42 46 50 54 58 60 61 62 63 64 63 63 62 61 65 68 66 67 71 71 69 68 67 69 72 74 77 79 77 76 76 76 75
44 44 44 44 44 45 47 47 47 47 46 46 46 47 47 49 50 51 52 52 52 50 49 46 44 43 41 38 37 38 42 48 53 56 59 61 63 64 65 65 63 63 64 66 70 68 65 68 72 71 70 70 70 72 75 77 79 79 77 76 76 76 76
46 46 46 46 46 46 47 47 48 48 48 48 48 48 48 49 50 50 51 51 51 49 47 44 42 40 38 37 37 39 43 50 56 58 61 63 65 67 67 65 63 65 68 71 73 70 67 69 73 71 71 72 72 74 77 78 78 78 78 78 78 78 78
48 49 48 48 47 47 48 48 49 49 49 49 49 50 50 50 50 51 51 51 50 48 45 43 41 38 38 39 41 43 47 53 58 60 62 65 66 69 69 65 65 69 72 74 75 72 69 71 73 72 72 74 74 75 77 78 79 80 80 80 80 80 81
52 52 51 49 49 50 50 50 50 51 50 50 50 51 51 52 52 51 51 51 50 48 45 43 41 41 42 44 47 51 53 57 62 64 65 67 69 72 71 68 70 73 75 77 78 74 70 72 74 72 73 75 75 76 78 79 81 83 83 82 81 83 84
54 55 54 52 51 51 53 53 52 52 52 51 51 51 52 53 54 53 53 52 52 51 48 46 46 46 47 50 54 58 60 65 69 69 67 68 73 78 74 70 71 73 76 80 79 73 70 73 74 73 74 76 77 77 79 82 84 84 85 83 83 86 86
55 56 57 56 53 52 53 54 54 54 54 54 53 53 54 55 55 55 55 55 54 53 52 51 51 52 53 56 61 65 69 71 69 66 67 71 78 82 75 68 70 74 76 78 74 69 69 74 76 75 77 79 79 79 81 84 85 85 86 84 85 87 85
55 57 59 58 55 53 53 54 55 55 55 55 54 54 55 56 56 57 57 57 57 56 56 56 56 58 60 62 66 70 73 69 63 66 72 76 81 81 72 67 72 75 75 72 68 67 71 75 77 78 80 80 80 81 84 86 86 85 85 84 87 90 86
55 58 59 58 57 55 55 56 56 55 55 56 55 55 55 56 57 58 59 59 59 60 60 60 61 63 64 67 71 72 71 68 68 74 77 77 79 75 68 68 74 75 72 68 67 71 74 76 79 81 82 82 82 84 86 87 86 86 85 86 91 93 88
57 59 58 58 57 57 57 57 57 56 56 57 57 58 57 58 58 59 60 61 62 63 64 64 65 66 68 71 71 69 69 69 71 76 75 72 70 66 64 70 76 75 72 70 71 75 76 77 81 84 85 85 84 86 88 87 87 87 87 91 95 94 90
61 61 59 58 58 57 57 58 57 57 56 56 57 58 59 60 61 61 62 62 64 66 67 68 68 68 69 70 67 67 70 70 69 73 71 63 60 61 65 73 77 76 73 72 74 77 78 81 85 88 88 86 85 88 89 87 87 88 91 94 95 92 91
64 65 63 61 60 59 59 58 58 58 57 56 56 57 58 60 61 62 63 64 65 67 68 68 68 67 68 69 66 65 67 66 65 65 61 56 58 63 69 74 76 74 71 72 76 79 83 87 89 89 88 86 86 89 89 89 91 94 96 96 95 93 93
67 68 67 65 64 63 62 61 60 59 59 58 58 58 59 60 61 63 63 63 64 65 66 67 67 67 68 69 66 63 61 60 59 58 56 59 64 68 72 75 73 70 70 73 79 84 88 89 88 88 87 86 88 90 92 94 98 100 98 97 97 96 94
70 70 69 68 67 67 66 65 64 62 61 61 62 61 62 63 64 64 63 63 63 63 65 66 67 67 67 65 63 60 54 51 52 54 58 63 68 71 75 75 71 69 73 78 84 88 90 88 87 87 87 88 90 93 96 99 101 100 98 98 99 97 93
73 72 71 70 69 69 68 68 67 66 65 65 64 65 66 67 67 65 63 63 64 65 67 67 65 64 61 58 54 49 44 44 51 60 65 68 72 75 76 74 72 73 77 82 88 90 89 87 86 87 88 89 91 95 100 102 101 99 98 99 98 95 91
74 73 72 72 72 72 72 71 71 70 68 67 67 68 68 67 67 65 65 66 68 69 69 65 62 59 55 49 44 41 42 48 57 65 70 72 75 76 76 75 76 78 82 87 90 90 88 87 86 88 89 89 91 95 100 101 100 99 99 99 97 93 88
75 74 75 76 76 75 74 73 73 72 71 71 72 72 70 68 66 66 68 70 70 70 68 65 61 56 47 40 39 42 48 57 64 70 73 75 77 78 78 78 80 83 87 90 90 89 87 87 88 90 91 91 93 97 100 100 100 100 100 100 97 93 88
76 77 78 78 77 75 74 74 74 73 73 73 73 73 71 70 69 69 71 71 68 67 65 60 55 51 43 38 41 45 52 62 69 73 74 75 77 78 79 80 84 88 91 90 89 88 87 89 91 93 94 95 97 100 101 101 101 101 101 100 98 93 89
78 78 77 77 76 75 74 74 74 74 74 72 70 68 68 68 71 72 71 70 67 64 61 53 48 47 45 45 47 51 58 65 69 70 72 74 77 78 80 83 88 91 90 89 88 88 89 92 95 96 97 98 100 101 102 102 101 102 101 100 97 93 88
77 77 76 76 76 76 75 75 75 75 74 71 70 70 70 72 74 74 72 70 66 63 60 54 51 53 55 56 57 59 63 67 70 73 76 78 80 82 85 88 90 91 89 87 88 89 92 94 97 98 99 99 101 102 102 102 102 102 101 99 95 91 88
76 76 76 77 77 75 74 73 72 72 71 71 72 73 73 73 74 73 71 68 66 64 60 55 55 59 60 58 59 63 67 72 77 81 82 82 83 86 89 90 90 89 88 88 89 92 94 96 98 100 100 100 102 102 103 103 103 103 102 99 95 91 90
77 76 76 76 76 75 73 71 70 70 71 72 73 74 73 72 71 69 67 64 63 63 61 58 59 63 63 61 63 68 72 76 79 80 80 82 87 90 91 90 89 89 88 89 90 92 95 98 99 99 99 101 103 104 105 105 105 104 103 99 94 92 92
76 75 76 76 76 75 73 71 71 71 71 72 73 73 73 71 68 66 65 63 62 62 62 63 66 68 68 67 68 70 71 72 74 77 81 87 92 94 93 92 90 89 88 88 90 94 97 98 97 97 101 104 105 106 106 105 105 105 101 97 94 94 95
75 75 75 75 75 75 73 71 70 70 70 70 71 71 70 68 67 65 64 64 64 64 64 66 69 71 71 69 68 71 74 75 77 81 86 91 93 93 93 93 91 88 88 90 93 95 96 96 97 100 104 107 107 107 106 106 106 104 99 95 95 96 97
73 72 72 72 72 71 71 71 71 70 70 70 70 69 69 67 65 63 61 61 62 63 65 67 68 70 71 68 68 73 79 82 84 86 88 89 90 91 93 94 91 90 91 93 94 95 95 97 101 105 107 107 107 106 107 107 106 101 97 95 97 98 99
70 70 70 71 70 70 71 72 72 72 72 72 72 71 68 65 60 58 58 57 54 55 59 62 62 65 66 66 69 74 78 82 84 86 87 88 89 91 94 95 94 93 93 93 94 96 99 101 104 106 106 106 107 107 108 108 104 98 96 97 99 100 99
68 69 71 73 74 74 74 74 74 74 74 74 71 68 64 61 57 56 57 55 49 47 49 52 56 61 64 66 70 73 76 80 83 86 87 88 88 91 95 97 95 92 91 93 96 99 101 102 103 103 104 107 108 108 109 107 101 96 97 101 102 101 99
68 70 72 73 73 73 73 73 73 73 73 70 68 65 62 59 56 56 57 56 53 53 56 60 63 67 70 72 75 77 79 81 84 85 86 85 86 89 93 94 93 91 93 96 99 100 100 100 101 103 106 108 109 109 109 104 98 96 101 104 103 102 98
69 69 69 69 69 69 70 70 71 71 71 69 66 63 61 58 56 57 58 58 58 61 65 68 68 68 69 72 74 75 76 77 76 76 77 79 82 86 88 90 92 95 98 100 99 98 98 100 102 105 108 109 110 110 105 99 96 99 103 105 104 101 96
68 67 67 67 68 69 70 71 72 72 70 67 64 62 60 58 56 57 58 60 62 64 65 66 66 67 67 67 67 68 70 71 71 72 74 78 82 84 85 89 95 99 100 100 99 98 100 102 105 108 110 111 111 106 100 96 97 101 104 104 103 100 93
72 71 70 70 71 73 74 74 74 72 70 68 66 64 62 60 59 58 59 62 64 65 64 66 69 70 68 66 65 65 67 70 74 77 78 81 84 84 86 92 98 100 100 99 99 101 103 106 108 111 112 111 106 100 96 96 99 102 103 104 101 96 91
71 72 73 74 76 77 77 75 74 73 72 71 70 68 66 65 64 63 63 66 69 70 71 73 75 76 75 76 75 74 74 76 80 83 85 86 87 88 92 98 101 101 100 101 102 104 107 109 112 113 111 105 99 96 96 99 101 102 102 101 97 93 89
Wind_Direction
295 298 299 301 302 303 304 304 304 305 305 306 306 306 307 308 309 308 308 307 304 303 306 309 311 312 314 315 316 316 315 315 317 320 322 324 325 325 325 327 329 332 333 333 331 333 336 337 339 339 337 336 338 339 339 340 341 340 339 338 336 335 334
289 295 298 299 299 300 300 300 301 302 303 304 304 305 306 307 307 307 308 306 304 302 303 306 308 310 311 313 314 314 314 314 315 317 320 322 322 323 324 325 327 330 332 332 330 330 333 336 337 338 336 335 335 336 338 339 340 341 340 338 337 335 334
285 289 292 293 295 296 296 297 299 300 300 302 303 304 305 304 305 306 307 306 304 303 303 304 306 308 308 310 311 311 312 313 314 317 319 320 320 321 322 323 325 328 331 331 331 330 332 335 337 336 335 334 333 333 335 337 339 340 341 339 337 335 334
282 283 283 286 288 290 291 293 295 297 299 301 302 302 302 302 303 304 305 305 305 304 303 304 305 305 305 306 308 308 310 312 313 316 320 319 317 317 320 322 323 326 327 328 330 330 330 333 335 335 333 333 333 332 333 335 337 338 340 340 337 335 334
282 283 284 286 288 288 289 291 293 295 297 299 300 300 301 302 302 304 305 305 306 305 305 305 305 304 302 303 305 306 308 311 312 316 320 320 318 317 318 320 321 323 325 325 328 328 328 331 333 333 333 332 332 332 332 333 335 336 338 339 337 335 334
282 285 286 288 290 290 291 292 293 295 296 297 298 299 300 302 303 305 306 307 307 307 307 307 306 303 302 302 303 305 308 311 312 316 319 320 319 318 317 318 319 321 323 322 325 325 325 328 331 331 331 330 330 332 332 331 332 334 335 337 337 335 333
281 282 283 284 286 288 290 291 292 293 295 296 297 298 299 301 303 305 306 307 308 308 309 308 305 303 301 302 303 305 308 311 312 316 318 319 319 318 316 316 317 319 321 321 322 323 322 325 328 330 330 329 329 331 331 330 331 332 333 335 336 334 332
278 278 279 281 282 284 287 290 291 292 294 294 295 297 297 298 301 303 305 306 308 309 310 309 305 302 301 301 303 305 307 310 312 314 317 318 318 318 315 314 315 317 319 320 322 321 320 324 327 329 329 329 329 330 330 330 330 331 331 333 334 333 331
275 276 277 279 280 282 284 287 289 290 291 292 293 294 295 297 299 301 304 306 307 309 310 308 306 303 301 301 302 303 306 309 310 312 315 316 316 315 313 311 313 317 318 319 321 320 320 323 327 328 329 329 329 330 330 329 330 330 330 331 331 330 329
273 274 274 276 278 279 279 281 283 284 286 289 291 293 294 296 298 300 303 305 307 308 308 307 305 301 300 300 300 302 304 306 307 308 312 313 313 313 311 308 311 316 318 319 320 319 319 323 326 327 327 328 328 328 329 328 328 329 329 329 329 328 327
273 273 274 274 275 277 277 278 278 280 283 286 289 292 293 295 296 299 302 303 305 306 305 305 302 300 300 300 300 302 303 305 306 306 309 309 310 312 310 306 308 313 316 317 318 318 318 322 325 325 326 326 326 327 327 327 327 327 328 328 327 327 326
273 275 276 275 275 277 278 279 281 283 285 287 289 291 293 294 296 298 300 301 302 303 303 302 300 299 300 300 301 302 302 305 305 304 305 305 308 311 309 306 308 311 313 315 317 316 318 322 324 323 323 324 325 325 325 325 326 327 328 327 327 327 326
273 275 276 276 276 277 279 282 283 286 288 290 291 292 293 294 295 297 299 300 300 301 300 300 299 299 299 300 301 301 303 306 304 301 302 304 307 309 306 306 309 311 312 314 315 315 316 320 322 321 322 323 323 323 323 324 326 328 329 328 327 327 325
273 274 275 276 278 280 281 282 283 285 287 289 290 291 292 293 294 296 297 297 298 298 299 299 299 298 299 300 301 302 304 306 301 298 301 303 305 305 302 305 310 312 314 314 314 313 315 317 319 320 320 321 320 320 321 324 326 328 330 329 327 326 324
272 273 275 279 281 283 284 284 285 287 288 289 290 290 290 291 292 294 295 296 296 296 298 299 298 298 300 301 302 302 304 304 300 299 301 303 303 301 299 305 311 314 315 313 311 312 313 314 317 319 319 318 318 318 321 324 326 327 328 328 327 325 322
272 272 275 279 281 283 284 284 286 288 289 289 291 292 292 291 291 292 292 293 294 295 296 297 298 299 301 302 303 304 305 304 301 300 302 302 299 296 298 306 312 314 313 310 309 311 311 312 315 317 317 317 316 318 321 323 326 327 327 326 325 323 320
275 275 276 277 279 280 282 283 286 287 288 289 290 291 293 293 292 292 292 293 294 295 296 297 298 301 302 303 304 304 303 302 299 298 298 296 294 295 299 306 312 313 310 308 309 310 311 312 313 314 316 315 315 318 321 323 324 325 325 324 324 322 319
276 277 278 278 279 280 281 283 284 286 287 289 289 290 291 291 292 292 293 294 295 295 296 297 299 301 301 302 303 302 299 297 293 290 289 289 292 295 298 305 311 311 308 309 310 311 311 311 311 312 314 314 315 317 319 320 322 323 323 324 324 322 321
274 277 278 279 280 281 282 283 284 285 287 288 289 289 290 291 292 293 294 295 295 295 297 298 299 300 300 301 302 301 296 290 283 279 280 286 291 293 297 305 309 308 307 308 309 310 310 310 310 312 314 313 314 315 317 319 321 322 323 324 324 323 322
274 276 278 279 281 282 283 284 284 285 286 287 288 288 289 290 291 292 292 293 292 294 296 297 298 299 300 301 302 301 296 286 278 278 281 285 287 290 296 303 305 304 306 307 308 309 309 309 311 312 313 313 313 314 316 319 321 322 323 323 323 323 322
274 276 278 279 280 280 281 282 283 284 285 286 287 288 289 289 289 289 290 291 291 293 295 296 296 297 297 300 303 300 291 282 280 282 282 282 284 289 295 299 301 302 305 306 307 308 308 309 311 312 312 312 313 315 317 319 321 321 322 322 322 322 321
273 275 276 277 277 277 279 281 282 284 285 285 286 288 290 289 288 287 288 292 293 293 293 294 295 295 296 299 303 296 283 277 279 281 280 281 284 289 294 296 298 301 304 304 305 306 307 308 310 310 311 313 314 315 316 318 319 319 320 321 321 320 319
272 273 274 274 275 277 279 281 283 284 285 286 287 288 288 288 288 288 289 293 294 293 293 293 294 293 290 285 283 280 275 274 276 277 278 280 284 289 292 294 297 300 302 303 304 305 306 307 309 310 312 312 312 313 314 316 317 318 319 320 320 319 318
271 271 272 274 276 278 280 281 282 283 285 286 287 287 286 286 288 290 292 294 295 293 293 294 293 289 280 266 258 261 267 272 274 275 277 280 285 288 290 292 296 299 300 301 302 304 305 307 308 310 311 311 311 312 314 316 317 318 319 320 319 318 317
272 273 274 275 277 278 279 280 281 282 283 284 285 286 285 286 289 291 293 295 294 292 290 287 281 276 272 266 260 260 266 270 271 273 277 281 284 286 289 292 295 297 299 300 302 304 305 306 308 309 310 311 311 313 314 316 317 318 318 318 317 317 316
274 276 277 277 277 278 279 280 281 282 282 282 283 284 285 287 290 292 294 295 293 290 286 280 271 266 268 270 270 269 270 270 269 272 277 281 283 285 289 292 295 297 298 301 302 304 305 306 307 308 309 310 311 313 314 314 315 316 317 316 315 315 315
277 277 278 278 278 279 280 280 282 282 282 282 282 283 284 286 289 292 294 294 291 287 284 278 272 269 270 271 270 269 270 270 270 273 277 280 283 287 291 293 295 296 298 300 301 303 305 306 307 308 308 309 311 312 312 313 314 315 315 315 314 314 314
278 278 278 279 280 281 281 281 281 281 282 283 284 284 285 288 291 293 294 292 289 285 282 277 274 274 273 272 272 273 273 273 273 274 276 279 284 288 291 292 293 295 297 299 301 302 303 304 306 307 307 308 310 310 311 313 313 314 314 314 313 314 315
278 278 279 280 281 282 282 281 281 281 282 284 285 286 288 290 293 294 294 291 288 285 281 277 276 276 275 275 277 278 275 273 274 275 277 281 285 288 290 291 292 294 296 298 299 301 302 303 304 305 306 307 308 309 311 312 313 313 313 313 313 314 315
278 280 281 281 281 282 282 282 282 283 283 284 285 287 289 291 293 294 292 290 288 286 283 281 279 279 278 277 276 275 274 275 278 279 280 284 286 288 289 290 291 292 294 296 297 299 301 301 302 303 304 306 307 309 310 312 313 313 312 312 313 314 316
279 279 279 280 280 281 282 282 283 284 284 284 284 286 288 290 291 291 289 287 287 285 284 283 281 279 278 277 275 274 276 279 281 281 283 285 287 288 288 288 288 290 291 293 296 298 299 299 300 302 304 305 307 309 311 312 312 311 311 312 313 314 316
277 277 277 278 279 279 280 281 282 282 282 283 284 286 287 288 288 286 284 283 285 286 287 285 282 280 280 280 279 278 279 280 282 282 283 284 285 286 286 285 286 287 289 291 294 297 298 299 301 303 304 306 308 309 311 311 310 310 311 313 313 314 315
277 278 278 279 279 279 279 279 279 280 281 282 284 285 285 284 283 281 280 280 278 278 282 283 281 282 282 281 279 278 279 280 281 282 282 283 284 285 285 286 287 289 290 293 296 298 299 301 302 303 305 307 308 309 310 310 309 309 312 313 313 313 314
276 278 279 280 280 280 280 279 278 278 279 281 282 282 281 280 279 278 278 277 273 271 274 278 280 281 281 278 277 276 276 277 280 282 283 285 286 287 288 289 291 293 295 297 299 300 301 302 302 304 305 307 308 309 309 308 307 309 311 312 312 312 313
274 276 277 277 278 279 279 279 279 279 280 281 280 279 278 277 277 275 274 274 274 275 278 280 281 280 279 278 279 279 278 279 282 285 288 288 288 288 289 291 293 295 298 300 300 300 300 301 302 304 305 306 307 307 307 306 306 308 310 310 311 311 312
271 272 273 274 275 276 277 278 279 281 281 281 280 278 276 274 273 273 273 275 277 278 279 280 279 278 278 280 282 282 281 281 281 282 283 284 285 287 289 290 293 296 298 298 298 298 299 300 302 303 304 305 305 305 305 305 306 307 309 309 310 310 311
273 273 272 272 272 273 275 278 280 281 281 281 280 277 275 273 273 274 275 276 276 277 278 278 278 276 275 276 277 278 278 278 278 278 278 279 281 284 286 289 292 294 295 295 296 297 298 300 301 302 302 303 303 303 304 305 306 307 308 309 309 309 310
272 273 273 273 273 275 277 280 280 280 280 280 279 278 277 276 276 275 274 274 275 276 278 279 277 276 274 273 272 271 272 274 276 276 277 277 279 282 285 288 290 292 293 294 295 296 297 298 299 300 301 301 301 303 304 305 306 307 308 308 308 308 310
Height
10977 10974 10972 10972 10972 10972 10972 10971 10971 10970 10968 10967 10966 10966 10965 10965 10965 10965 10964 10962 10960 10958 10957 10954 10952 10950 10948 10945 10943 10942 10939 10937 10934 10931 10928 10925 10922 10919 10917 10914 10911 10908 10904 10900 10895 10892 10889 10886 10883 10879 10875 10871 10867 10863 10860 10855 10850 10845 10841 10836 10831 10826 10822
10975 10973 10970 10968 10968 10968 10968 10968 10968 10967 10966 10965 10963 10962 10962 10961 10960 10960 10960 10959 10958 10956 10954 10952 10949 10947 10945 10942 10939 10938 10935 10932 10930 10927 10924 10922 10919 10916 10913 10910 10907 10903 10899 10895 10892 10888 10885 10882 10878 10875 10871 10867 10863 10858 10854 10850 10844 10839 10835 10831 10826 10821 10817
10973 10971 10969 10966 10964 10963 10963 10963 10964 10963 10962 10962 10960 10958 10958 10957 10956 10956 10956 10955 10954 10953 10951 10949 10947 10944 10941 10938 10936 10933 10931 10928 10925 10923 10920 10918 10915 10912 10909 10906 10902 10898 10894 10890 10887 10884 10880 10876 10873 10870 10867 10863 10858 10853 10849 10844 10839 10833 10829 10825 10820 10816 10811
10969 10968 10967 10964 10962 10960 10960 10960 10960 10960 10959 10958 10956 10954 10952 10952 10952 10952 10952 10951 10950 10949 10947 10945 10944 10941 10937 10934 10931 10929 10927 10924 10921 10918 10916 10913 10911 10909 10905 10902 10897 10893 10890 10886 10882 10878 10874 10871 10868 10865 10861 10857 10852 10847 10843 10838 10833 10828 10823 10818 10814 10810 10806
10963 10962 10962 10960 10957 10955 10955 10955 10956 10957 10956 10955 10953 10950 10947 10946 10947 10947 10947 10947 10945 10944 10942 10940 10938 10936 10933 10929 10927 10925 10923 10920 10916 10913 10911 10908 10906 10903 10900 10897 10893 10889 10884 10880 10876 10872 10868 10865 10862 10859 10855 10850 10845 10841 10836 10832 10827 10822 10817 10813 10808 10804 10800
10958 10957 10956 10955 10952 10948 10948 10949 10950 10951 10952 10951 10949 10946 10943 10941 10940 10940 10941 10940 10940 10939 10937 10934 10932 10929 10927 10924 10923 10921 10919 10916 10912 10908 10905 10902 10899 10897 10894 10891 10887 10883 10879 10875 10872 10868 10864 10860 10857 10853 10849 10845 10841 10836 10831 10826 10822 10817 10812 10807 10802 10797 10793
10953 10952 10950 10950 10948 10945 10943 10943 10944 10945 10946 10946 10945 10943 10941 10938 10936 10935 10934 10934 10933 10933 10931 10929 10926 10923 10921 10919 10918 10917 10914 10910 10907 10903 10900 10897 10894 10891 10888 10884 10881 10877 10874 10870 10867 10864 10860 10856 10852 10849 10845 10840 10836 10831 10826 10822 10818 10812 10807 10801 10796 10791 10787
10948 10947 10946 10946 10945 10943 10940 10938 10938 10939 10940 10940 10940 10939 10937 10935 10933 10931 10929 10928 10927 10927 10926 10923 10921 10918 10916 10914 10913 10912 10909 10905 10901 10898 10894 10891 10888 10886 10883 10879 10876 10873 10869 10865 10862 10858 10855 10851 10847 10842 10838 10834 10829 10825 10820 10816 10811 10806 10801 10796 10791 10786 10781
10942 10942 10942 10941 10941 10940 10938 10936 10934 10934 10935 10935 10934 10934 10932 10931 10929 10927 10925 10923 10922 10921 10920 10918 10916 10913 10911 10910 10908 10907 10904 10899 10895 10892 10889 10886 10883 10880 10877 10874 10870 10867 10863 10859 10856 10851 10848 10844 10839 10835 10830 10826 10821 10816 10812 10808 10804 10801 10796 10791 10785 10780 10776
10937 10936 10936 10937 10937 10937 10936 10934 10932 10931 10931 10931 10930 10929 10927 10926 10924 10922 10920 10918 10916 10916 10915 10913 10911 10909 10906 10904 10902 10901 10899 10894 10889 10886 10883 10880 10877 10874 10871 10867 10863 10859 10855 10852 10848 10844 10840 10835 10831 10827 10822 10817 10813 10809 10805 10801 10797 10794 10790 10785 10780 10775 10770
10930 10930 10930 10932 10933 10931 10930 10930 10929 10928 10928 10928 10927 10925 10923 10920 10918 10917 10915 10912 10910 10909 10909 10908 10906 10903 10901 10898 10895 10894 10893 10889 10884 10880 10877 10873 10870 10867 10864 10860 10855 10851 10847 10843 10839 10836 10832 10827 10823 10819 10815 10810 10806 10802 10798 10794 10790 10787 10783 10779 10773 10768 10762
10924 10923 10923 10925 10926 10925 10923 10922 10922 10922 10922 10923 10922 10921 10918 10915 10913 10911 10909 10906 10904 10903 10902 10901 10900 10898 10895 10892 10889 10886 10885 10883 10878 10873 10870 10865 10862 10860 10856 10853 10848 10843 10840 10836 10832 10828 10824 10820 10816 10812 10809 10804 10800 10796 10792 10788 10783 10779 10776 10771 10765 10760 10754
10919 10917 10915 10917 10919 10920 10918 10917 10916 10916 10916 10916 10915 10914 10912 10910 10907 10905 10903 10900 10897 10896 10895 10895 10893 10891 10890 10888 10884 10880 10878 10876 10869 10863 10861 10858 10854 10851 10848 10845 10841 10836 10833 10829 10826 10822 10818 10813 10809 10806 10802 10797 10793 10790 10786 10782 10777 10772 10768 10763 10758 10753 10747
10913 10909 10907 10909 10912 10914 10914 10913 10911 10911 10911 10910 10910 10908 10906 10904 10902 10899 10897 10894 10891 10889 10888 10887 10886 10884 10883 10882 10879 10875 10872 10869 10862 10856 10854 10852 10847 10843 10839 10837 10834 10830 10827 10823 10819 10816 10811 10807 10803 10799 10795 10790 10786 10783 10780 10776 10770 10765 10760 10756 10752 10747 10741
10907 10903 10901 10902 10905 10906 10906 10905 10905 10905 10904 10904 10903 10903 10902 10900 10897 10895 10892 10888 10885 10883 10881 10880 10879 10877 10876 10875 10872 10868 10865 10863 10855 10848 10846 10843 10838 10834 10832 10830 10828 10824 10820 10816 10812 10809 10804 10800 10797 10793 10789 10784 10780 10776 10773 10768 10763 10758 10754 10750 10746 10741 10734
10898 10897 10898 10898 10899 10899 10898 10898 10898 10898 10898 10897 10896 10895 10894 10893 10891 10890 10887 10883 10880 10877 10874 10873 10871 10870 10869 10865 10861 10857 10857 10855 10845 10835 10835 10834 10829 10827 10825 10823 10820 10816 10812 10808 10804 10801 10797 10793 10790 10786 10782 10777 10771 10767 10763 10760 10756 10752 10748 10744 10739 10734 10726
10888 10888 10892 10894 10894 10894 10893 10892 10892 10892 10892 10892 10891 10889 10887 10885 10883 10882 10880 10878 10875 10871 10868 10866 10864 10863 10859 10854 10851 10849 10849 10848 10837 10826 10825 10825 10822 10820 10818 10815 10812 10808 10804 10800 10796 10792 10788 10785 10782 10779 10774 10768 10762 10758 10755 10752 10749 10747 10743 10738 10732 10726 10718
10880 10879 10882 10885 10887 10887 10887 10887 10887 10886 10885 10885 10885 10884 10882 10879 10877 10875 10873 10872 10869 10865 10861 10859 10859 10857 10851 10846 10847 10846 10843 10839 10828 10820 10819 10817 10814 10812 10810 10807 10805 10801 10796 10792 10787 10784 10780 10777 10775 10772 10767 10760 10755 10750 10747 10744 10742 10740 10736 10730 10724 10717 10709
10874 10872 10873 10875 10877 10878 10878 10879 10879 10879 10878 10878 10877 10876 10875 10873 10871 10870 10869 10867 10863 10859 10857 10855 10853 10851 10845 10841 10842 10842 10837 10829 10819 10814 10812 10809 10806 10804 10802 10801 10799 10794 10789 10784 10780 10777 10773 10770 10768 10764 10759 10753 10748 10743 10739 10735 10732 10729 10725 10719 10713 10707 10701
10866 10866 10866 10868 10869 10868 10869 10870 10871 10871 10871 10870 10869 10868 10867 10866 10865 10864 10863 10861 10859 10856 10854 10851 10848 10845 10841 10838 10836 10832 10827 10819 10811 10806 10804 10801 10799 10798 10796 10795 10792 10787 10782 10777 10773 10770 10767 10763 10761 10757 10752 10747 10741 10735 10731 10727 10723 10719 10715 10710 10703 10696 10691
10859 10859 10860 10861 10861 10860 10861 10862 10863 10864 10864 10862 10861 10860 10858 10857 10857 10856 10856 10854 10853 10852 10850 10846 10843 10841 10839 10836 10831 10824 10818 10812 10804 10797 10795 10794 10794 10793 10791 10788 10784 10779 10775 10770 10766 10763 10760 10757 10755 10751 10747 10742 10734 10726 10721 10717 10714 10711 10707 10701 10694 10688 10683
10854 10854 10853 10852 10852 10852 10854 10856 10856 10856 10856 10855 10853 10851 10849 10848 10847 10847 10847 10847 10846 10844 10842 10839 10838 10837 10836 10833 10829 10822 10815 10809 10800 10790 10787 10788 10788 10786 10784 10780 10775 10772 10768 10764 10760 10756 10752 10750 10747 10744 10741 10736 10729 10721 10715 10711 10707 10703 10699 10694 10688 10682 10677
10848 10848 10845 10843 10845 10847 10847 10847 10846 10846 10846 10845 10843 10842 10840 10839 10838 10838 10838 10839 10838 10833 10831 10831 10832 10833 10833 10831 10827 10820 10811 10801 10794 10787 10784 10783 10781 10778 10775 10771 10767 10764 10761 10757 10753 10748 10744 10741 10738 10736 10732 10728 10722 10716 10711 10706 10701 10695 10690 10685 10679 10674 10668
10839 10839 10837 10837 10839 10841 10840 10838 10837 10836 10836 10835 10834 10832 10832 10830 10829 10829 10829 10831 10829 10825 10823 10824 10824 10825 10826 10824 10820 10815 10805 10794 10787 10783 10780 10778 10775 10770 10766 10763 10760 10756 10753 10749 10745 10740 10736 10732 10729 10727 10724 10718 10712 10707 10703 10698 10692 10686 10681 10675 10670 10665 10660
10828 10829 10830 10832 10832 10832 10831 10830 10828 10828 10827 10826 10825 10824 10824 10822 10821 10821 10821 10821 10820 10817 10817 10819 10817 10816 10817 10816 10812 10808 10799 10788 10781 10776 10774 10772 10767 10762 10758 10757 10754 10749 10744 10740 10736 10732 10728 10724 10720 10718 10714 10708 10701 10696 10692 10688 10683 10677 10672 10667 10662 10657 10652
10818 10819 10821 10823 10822 10822 10822 10821 10819 10818 10818 10818 10817 10816 10816 10814 10812 10812 10812 10811 10810 10807 10808 10809 10808 10807 10807 10807 10805 10800 10791 10782 10774 10770 10767 10765 10759 10753 10752 10751 10747 10741 10736 10732 10727 10723 10719 10715 10710 10707 10704 10699 10692 10687 10683 10679 10675 10670 10664 10659 10654 10649 10644
10811 10811 10811 10811 10812 10813 10813 10812 10810 10809 10809 10809 10808 10808 10808 10807 10805 10804 10803 10801 10799 10797 10797 10798 10796 10795 10796 10797 10794 10789 10782 10775 10767 10763 10761 10757 10750 10745 10745 10742 10737 10732 10728 10724 10720 10714 10710 10706 10702 10697 10693 10689 10684 10680 10675 10671 10666 10661 10655 10650 10645 10640 10635
10801 10801 10801 10800 10801 10803 10805 10804 10803 10801 10800 10798 10798 10798 10798 10798 10797 10796 10794 10792 10789 10787 10788 10788 10784 10783 10785 10786 10781 10776 10771 10765 10759 10756 10754 10748 10741 10738 10737 10733 10728 10724 10720 10717 10712 10707 10702 10698 10694 10689 10683 10679 10676 10672 10668 10663 10656 10650 10644 10639 10634 10629 10625
10790 10791 10791 10791 10792 10793 10795 10795 10794 10793 10792 10790 10788 10787 10786 10787 10788 10786 10784 10782 10779 10778 10778 10777 10774 10772 10774 10775 10772 10764 10758 10754 10750 10748 10744 10737 10732 10730 10727 10723 10720 10717 10713 10710 10705 10701 10696 10691 10687 10682 10676 10671 10668 10664 10660 10654 10646 10640 10634 10629 10623 10619 10614
10781 10782 10781 10781 10781 10782 10784 10784 10784 10783 10782 10781 10779 10778 10777 10778 10778 10777 10775 10772 10770 10770 10769 10767 10764 10761 10762 10766 10764 10754 10745 10742 10741 10738 10733 10728 10724 10721 10716 10713 10712 10710 10706 10702 10698 10694 10689 10684 10679 10675 10669 10664 10660 10656 10650 10644 10636 10630 10625 10620 10614 10609 10603
10773 10773 10772 10771 10772 10772 10773 10773 10773 10773 10772 10771 10770 10770 10770 10771 10771 10771 10769 10766 10763 10761 10760 10759 10755 10750 10749 10753 10752 10743 10736 10732 10728 10725 10723 10720 10716 10712 10707 10704 10704 10702 10698 10694 10690 10686 10682 10677 10671 10666 10660 10655 10650 10645 10640 10633 10627 10621 10617 10611 10605 10600 10595
10763 10763 10762 10762 10763 10763 10764 10764 10764 10763 10762 10762 10762 10762 10762 10764 10765 10764 10761 10759 10757 10753 10749 10748 10746 10741 10740 10742 10738 10731 10726 10722 10717 10715 10714 10711 10707 10702 10697 10695 10696 10695 10691 10687 10683 10678 10673 10667 10661 10655 10650 10644 10639 10634 10629 10623 10618 10613 10608 10602 10596 10591 10587
10753 10753 10753 10752 10752 10753 10754 10755 10754 10754 10753 10754 10754 10755 10755 10756 10756 10754 10752 10751 10751 10748 10744 10742 10741 10737 10734 10732 10727 10722 10718 10714 10709 10705 10703 10701 10697 10691 10685 10683 10684 10684 10681 10677 10673 10667 10661 10655 10649 10643 10638 10633 10628 10623 10618 10613 10608 10604 10598 10592 10586 10582 10578
10745 10744 10743 10742 10742 10742 10742 10743 10744 10744 10745 10746 10747 10747 10747 10748 10747 10746 10743 10743 10744 10743 10739 10737 10735 10731 10726 10721 10717 10715 10712 10707 10700 10695 10691 10689 10686 10679 10674 10671 10670 10668 10666 10663 10658 10653 10648 10642 10637 10632 10627 10623 10619 10614 10608 10603 10599 10594 10589 10583 10577 10572 10569
10737 10735 10734 10733 10732 10732 10732 10732 10732 10733 10735 10736 10737 10738 10738 10739 10739 10738 10736 10735 10734 10733 10730 10727 10723 10718 10714 10710 10707 10705 10701 10696 10691 10686 10682 10678 10673 10667 10663 10659 10656 10654 10651 10648 10645 10641 10637 10632 10627 10623 10619 10615 10610 10606 10601 10596 10591 10586 10580 10574 10568 10563 10559
10727 10726 10726 10725 10724 10723 10723 10722 10722 10723 10724 10725 10727 10728 10729 10730 10731 10730 10730 10728 10724 10722 10721 10718 10712 10707 10703 10701 10698 10693 10687 10683 10681 10678 10674 10668 10662 10657 10654 10650 10647 10644 10640 10637 10634 10631 10627 10622 10618 10614 10611 10606 10602 10598 10594 10589 10584 10578 10571 10565 10559 10554 10550
10717 10717 10717 10717 10715 10715 10714 10714 10714 10714 10714 10714 10715 10717 10718 10720 10721 10722 10722 10720 10715 10712 10712 10710 10705 10701 10696 10691 10687 10681 10675 10672 10669 10667 10663 10658 10653 10650 10646 10642 10638 10635 10632 10629 10625 10621 10617 10613 10609 10606 10602 10598 10594 10590 10586 10581 10575 10569 10562 10556 10550 10545 10541
10710 10709 10708 10707 10706 10705 10705 10705 10705 10704 10703 10703 10704 10705 10707 10709 10711 10712 10712 10709 10705 10704 10704 10702 10698 10694 10689 10682 10676 10671 10667 10664 10660 10657 10653 10649 10646 10642 10639 10634 10630 10626 10623 10620 10616 10612 10608 10605 10601 10597 10593 10589 10585 10581 10576 10571 10566 10560 10553 10547 10541 10536 10531